Aurora, NE

7:40 AM CDT on March 26, 2017 (GMT -0500)
Aurora Municipal

Weather History for KAUH - November, 2012

Change the Weather History Date:

Thursday, November 1, 2012

  Actual Average Record
Temperature  
Mean Temperature 48 °F -  
Max Temperature 59 °F 56 °F 78 °F (2015)
Min Temperature 38 °F 34 °F 15 °F (1991)
Degree Days  
Heating Degree Days 16    
Moisture  
Dew Point 36 °F    
Average Humidity 70    
Maximum Humidity 93    
Minimum Humidity 43    
Precipitation  
Precipitation 0.00 in - - ()
Sea Level Pressure  
Sea Level Pressure 29.98 in    
Wind  
Wind Speed 8 mph (NNE)    
Max Wind Speed 16 mph    
Max Gust Speed 24 mph    
Visibility 8 miles    
Events Fog    
Averages and records for this station are not official NWS values.
T = Trace of Precipitation, MM = Missing Value Source: NWS Daily Summary

Daily Weather History Graph

Daily Weather History Graph

Search for Another Location

Airport or City:

Trip Planner

Search our weather history database for the weather conditions in past years. The results will help you decide how hot, cold, wet, or windy it might be!

Date:

Astronomy

Nov. 01, 2012 Rise Set
Actual Time 8:03 AM CDT 6:27 PM CDT
Civil Twilight 7:34 AM CDT 6:55 PM CDT
Nautical Twilight 7:02 AM CDT 7:28 PM CDT
Astronomical Twilight 6:30 AM CDT 8:00 PM CDT
Moon 8:24 PM CDT (11/1) 10:37 AM CDT (11/1)
Length of Visible Light 11h 21m
Length of Day
10h 24m
Waning Gibbous, 93% of the Moon is Illuminated
Nov 1
Waning Gibbous
Nov 6
Last Quarter
Nov 13
New
Nov 20
First Quarter
Nov 28
Full

Hourly Weather History & Observations

Time (CDT) Temp. Windchill Dew Point Humidity Pressure Visibility Wind Dir Wind Speed Gust Speed Precip Events Conditions
12:15 AM 45.1 °F 41.4 °F 34.3 °F 66% 29.99 in 10.0 mi SW 6.9 mph - N/A   Mostly Cloudy
12:35 AM 46.4 °F 44.3 °F 34.3 °F 63% 29.99 in 10.0 mi SW 4.6 mph - N/A   Overcast
12:55 AM 46.8 °F - 36.1 °F 67% 29.98 in 10.0 mi WSW 4.6 mph - N/A   Overcast
1:15 AM 47.7 °F - 36.3 °F 65% 29.98 in 10.0 mi WSW 6.9 mph - N/A   Mostly Cloudy
1:35 AM 45.3 °F 41.1 °F 34.9 °F 67% 29.98 in 10.0 mi WSW 8.1 mph - N/A   Scattered Clouds
1:55 AM 45.1 °F 42.0 °F 35.1 °F 68% 29.98 in 10.0 mi SW 5.8 mph - N/A   Clear
2:15 AM 44.6 °F 40.7 °F 35.2 °F 70% 29.98 in 10.0 mi SW 6.9 mph - N/A   Clear
2:35 AM 44.6 °F 40.2 °F 35.1 °F 69% 29.97 in 10.0 mi WSW 8.1 mph - N/A   Clear
3:15 AM 45.3 °F 40.6 °F 35.6 °F 69% 29.97 in 10.0 mi WSW 9.2 mph - N/A   Clear
3:35 AM 47.5 °F - 36.0 °F 64% 29.96 in 10.0 mi SW 10.4 mph - N/A   Clear
3:55 AM 46.8 °F - 35.6 °F 65% 29.96 in 10.0 mi WSW 10.4 mph - N/A   Clear
4:15 AM 44.8 °F 39.4 °F 35.1 °F 69% 29.96 in 10.0 mi WSW 10.4 mph - N/A   Clear
4:35 AM 42.1 °F 37.7 °F 34.0 °F 73% 29.96 in 10.0 mi West 6.9 mph - N/A   Clear
4:55 AM 40.3 °F 37.1 °F 33.1 °F 75% 29.96 in 10.0 mi WNW 4.6 mph - N/A   Clear
5:15 AM 40.3 °F 35.5 °F 32.4 °F 73% 29.96 in 10.0 mi NW 6.9 mph - N/A   Clear
5:35 AM 40.8 °F 35.6 °F 33.6 °F 76% 29.97 in 10.0 mi WNW 8.1 mph - N/A   Clear
5:55 AM 41.9 °F 37.5 °F 34.2 °F 74% 29.97 in 10.0 mi WNW 6.9 mph - N/A   Clear
6:15 AM 41.5 °F 36.4 °F 34.3 °F 76% 29.97 in 10.0 mi WNW 8.1 mph - N/A   Clear
6:35 AM 41.9 °F 36.9 °F 35.1 °F 77% 29.98 in 10.0 mi NW 8.1 mph - N/A   Clear
7:35 AM 42.8 °F 35.8 °F 36.5 °F 78% 29.98 in 10.0 mi NNW 13.8 mph - N/A   Clear
7:55 AM 43.0 °F 36.4 °F 36.9 °F 79% 29.99 in 10.0 mi NNW 12.7 mph - N/A   Clear
8:35 AM 42.6 °F 35.6 °F 37.0 °F 81% 30.00 in 10.0 mi NNW 13.8 mph - N/A   Clear
8:55 AM 43.7 °F 36.9 °F 37.8 °F 80% 30.01 in 10.0 mi NNW 13.8 mph - N/A   Clear
9:15 AM 44.6 °F 37.8 °F 38.1 °F 78% 30.02 in 10.0 mi North 15.0 mph - N/A   Clear
9:35 AM 44.8 °F 38.0 °F 38.3 °F 78% 30.03 in 10.0 mi North 15.0 mph 24.2 mph N/A   Clear
9:55 AM 45.3 °F 38.4 °F 38.5 °F 77% 30.04 in 10.0 mi NNW 16.1 mph 19.6 mph N/A   Clear
10:15 AM 45.7 °F 39.5 °F 39.2 °F 78% 30.03 in 10.0 mi North 13.8 mph - N/A   Scattered Clouds
10:35 AM 46.8 °F - 39.6 °F 76% 30.04 in 10.0 mi NNW 13.8 mph - N/A   Scattered Clouds
10:55 AM 47.5 °F - 39.6 °F 74% 30.05 in 10.0 mi NNW 13.8 mph 21.9 mph N/A   Mostly Cloudy
11:15 AM 48.2 °F - 39.9 °F 73% 30.05 in 7.0 mi NNW 13.8 mph - N/A   Scattered Clouds
11:35 AM 50.0 °F - 39.9 °F 68% 30.04 in 7.0 mi North 13.8 mph - N/A   Clear
11:55 AM 51.3 °F - 39.6 °F 64% 30.05 in 10.0 mi North 11.5 mph 16.1 mph N/A   Clear
12:15 PM 52.0 °F - 39.2 °F 62% 30.04 in 7.0 mi North 9.2 mph 16.1 mph N/A   Clear
12:35 PM 52.9 °F - 39.6 °F 61% 30.03 in 10.0 mi North 6.9 mph - N/A   Clear
1:15 PM 55.0 °F - 38.8 °F 54% 30.01 in 10.0 mi North 6.9 mph - N/A   Clear
1:35 PM 54.9 °F - 38.5 °F 54% 30.01 in 10.0 mi NNE 6.9 mph - N/A   Clear
1:55 PM 56.7 °F - 38.5 °F 51% 30.00 in 10.0 mi NNE 5.8 mph - N/A   Clear
2:15 PM 57.2 °F - 37.6 °F 48% 29.99 in 10.0 mi NE 8.1 mph - N/A   Clear
2:35 PM 58.1 °F - 37.4 °F 46% 29.98 in 10.0 mi ENE 9.2 mph - N/A   Clear
2:55 PM 59.0 °F - 36.9 °F 44% 29.98 in 10.0 mi NE 9.2 mph - N/A   Clear
3:15 PM 58.3 °F - 36.7 °F 45% 29.97 in 10.0 mi ENE 8.1 mph - N/A   Clear
4:15 PM 59.0 °F - 36.7 °F 43% 29.97 in 10.0 mi ENE 6.9 mph - N/A   Clear
4:55 PM 57.4 °F - 36.7 °F 46% 29.97 in 10.0 mi ENE 6.9 mph - N/A   Clear
5:15 PM 56.5 °F - 36.7 °F 48% 29.96 in 10.0 mi NE 9.2 mph - N/A   Clear
5:35 PM 55.4 °F - 36.9 °F 50% 29.96 in 7.0 mi ENE 5.8 mph - N/A   Clear
6:15 PM 50.9 °F - 36.5 °F 58% 29.95 in 5.0 mi ENE 8.1 mph - N/A   Haze
6:35 PM 48.0 °F - 36.0 °F 63% 29.95 in 10.0 mi ENE 5.8 mph - N/A   Clear
6:55 PM 45.1 °F 40.8 °F 34.9 °F 67% 29.96 in 1.0 mi ENE 8.1 mph - N/A   Haze
7:15 PM 44.8 °F 41.6 °F 35.6 °F 70% 29.96 in 0.5 mi ENE 5.8 mph - N/A   Haze
7:35 PM 43.5 °F 39.4 °F 35.2 °F 73% 29.96 in 0.5 mi East 6.9 mph - N/A   Unknown
7:55 PM 41.9 °F 38.2 °F 34.3 °F 75% 29.96 in 0.5 mi East 5.8 mph - N/A   Haze
8:15 PM 41.9 °F 38.2 °F 34.3 °F 75% 29.96 in 0.8 mi East 5.8 mph - N/A   Unknown
8:35 PM 40.8 °F 36.2 °F 34.5 °F 78% 29.96 in 1.5 mi East 6.9 mph - N/A   Haze
8:55 PM 41.2 °F 36.6 °F 35.1 °F 79% 29.96 in 1.2 mi ENE 6.9 mph - N/A   Haze
9:15 PM 41.0 °F 35.8 °F 35.6 °F 81% 29.96 in 0.8 mi East 8.1 mph - N/A   Haze
9:35 PM 40.1 °F 35.3 °F 35.2 °F 83% 29.96 in 0.5 mi East 6.9 mph - N/A   Haze
9:55 PM 39.0 °F 33.4 °F 34.7 °F 84% 29.96 in 0.5 mi East 8.1 mph - N/A Fog Fog
10:15 PM 39.0 °F 33.4 °F 35.6 °F 88% 29.96 in 0.5 mi East 8.1 mph - N/A Fog Fog
10:35 PM 39.4 °F 33.8 °F 36.0 °F 88% 29.95 in 3.0 mi East 8.1 mph - N/A   Clear
10:55 PM 39.4 °F 33.2 °F 36.3 °F 89% 29.93 in 4.0 mi East 9.2 mph - N/A   Clear
11:15 PM 38.8 °F 33.2 °F 36.0 °F 89% 29.93 in 3.0 mi East 8.1 mph - N/A   Clear
11:35 PM 38.8 °F 32.1 °F 36.5 °F 91% 29.93 in 3.0 mi East 10.4 mph - N/A   Clear
11:55 PM 38.5 °F 32.1 °F 36.5 °F 93% 29.93 in 3.0 mi East 9.2 mph - N/A   Clear